パンスターズ彗星

C/2017 P2 ( PanSTARRS )

English version
Home page
Updated on October 7, 2017

---------------------------------------------------------------------

・ プロフィール

発見日 2017年8月14日
発見光度 21.9等
発見者 Pan-STARRS 1 telescope (Haleakala)

・ 軌道要素

Epoch 2017 Nov. 23.0 TT = JDT 2458080.5
T 2017 Dec. 6.57406 TT                                  MPCW
q   2.4617357            (2000.0)            P               Q
z  +0.0005532      Peri.  132.24879     +0.53247165     +0.82450067
 +/-0.0001802      Node   165.54179     -0.80182911     +0.41884074
e   0.9986381      Incl.   50.08562     +0.27119002     -0.38048796
From 40 observations 2017 Aug. 14-Sept. 13, mean residual 0".3.

・ 光度変化

        m1 = 15.0 + 5 logΔ + 10.0 log r

---------------------------------------------------------------------

軌道要素はM.P.E.C. 2017-T14に掲載されたものです。
光度グラフはComet for Windowsで作成したものです。

---------------------------------------------------------------------

Copyright(C) Seiichi Yoshida (comet@aerith.net). All rights reserved.